Hourly Data Report for October 23, 2015

All times are specified in Local Standard Time (LST). Add 1 hour to adjust for Daylight Saving Time where and when it is observed.

KUGLUKTUK A
NUNAVUT

67°49'00.000" N
115°08'38.000" W
22.60 m
2300903
71938
YCO

Download Data

Hourly Data (October 2015)
Hourly Data Report for October 23, 2015
Temp Definition
°C
Dew Point Temp Definition
°C
Rel Hum Definition
%
Wind Dir Definition
10's deg

Wind Spd Definition
km/h
Visibility Definition
km
Stn Press Definition
kPa
Hmdx Definition


Wind Chill Definition


Weather Definition


TIME
00:00 Legend Double Dagger -6.8 -8.6 87 1 27 12.9 101.06   -15 Snow
01:00 Legend Double Dagger -6.7 -8.7 86 1 22 24.1 101.12   -14 LegendNANA
02:00 Legend Double Dagger -6.6 -8.9 84 1 24 24.1 101.19   -14 Mostly Cloudy
03:00 Legend Double Dagger -6.8 -9.5 81 35 19 24.1 101.28   -14 LegendNANA
04:00 Legend Double Dagger -7.5 -10.5 79 36 19 24.1 101.36   -15 LegendNANA
05:00 Legend Double Dagger -7.9 -10.6 81 1 11 24.1 101.43   -13 Mostly Cloudy
06:00 Legend Double Dagger -8.1 -10.7 82 36 18 24.1 101.51   -15 LegendNANA
07:00 Legend Double Dagger -9.8 -11.7 86 1 25 16.1 101.62   -19 Snow
08:00 Legend Double Dagger -10.6 -13.6 79 36 22 12.9 101.73   -19 Snow,Blowing Snow
09:00 Legend Double Dagger -10.7 -13.2 82 2 17 12.9 101.86   -18 Snow
10:00 Legend Double Dagger -10.2 -12.7 82 3 26 8.1 101.95   -19 Snow,Blowing Snow
11:00 Legend Double Dagger -10.0 -12.5 82 3 28 6.4 102.07   -19 Snow,Blowing Snow
12:00 Legend Double Dagger -10.7 -13.8 78 2 29 8.1 102.20   -20 Snow,Blowing Snow
13:00 Legend Double Dagger -11.3 -13.9 81 1 30 9.7 102.30   -21 Snow,Blowing Snow
14:00 Legend Double Dagger -11.7 -14.8 78 3 24 16.1 102.39   -21 Snow,Blowing Snow
15:00 Legend Double Dagger -11.8 -14.9 78 3 23 19.3 102.46   -21 Snow,Blowing Snow
16:00 Legend Double Dagger -12.1 -15.0 79 5 17 16.1 102.56   -20 Snow,Blowing Snow
17:00 Legend Double Dagger -12.6 -15.2 81 2 20 19.3 102.65   -21 Snow,Blowing Snow
18:00 Legend Double Dagger -12.6 -15.5 79 2 17 19.3 102.69   -20 Snow,Blowing Snow
19:00 Legend Double Dagger -12.6 -15.4 80 3 14 19.3 102.75   -20 Snow
20:00 Legend Double Dagger -12.9 -15.7 80 36 14 24.1 102.78   -20 Snow
21:00 Legend Double Dagger -12.9 -16.3 76 33 8 24.1 102.82   -18 Snow
22:00 Legend Double Dagger -14.2 -16.9 80 29 21 24.1 102.85   -23 Snow
23:00 Legend Double Dagger -14.4 -17.3 79 29 23 24.1 102.88   -24 Snow

Notes on Data Quality.

Legend

  • E = Estimated
  • M = Missing
  • NA = Not Available
  • ‡ = Partner data that is not subject to review by the National Climate Archives
Date modified: